Bryce Canyon, UT

4:24 AM MST on December 13, 2019 (GMT -0700)
Bryce Canyon

Weather History for KBCE - August, 2019

Change the Weather History Date:

Thursday, August 22, 2019

  Actual Average Record
Temperature  
Mean Temperature 62 °F -  
Max Temperature 82 °F 75 °F 84 °F (2007)
Min Temperature 45 °F 43 °F 32 °F (2002)
Degree Days  
Heating Degree Days 2    
Growing Degree Days 12 (Base 50)    
Moisture  
Dew Point 20 °F    
Average Humidity 25    
Maximum Humidity 43    
Minimum Humidity 8    
Precipitation  
Precipitation 0.00 in - - ()
Sea Level Pressure  
Sea Level Pressure 29.84 in    
Wind  
Wind Speed 7 mph (WSW)    
Max Wind Speed 17 mph    
Max Gust Speed 26 mph    
Visibility 8 miles    
Events      
Averages and records for this station are not official NWS values.
T = Trace of Precipitation, MM = Missing Value Source: NWS Daily Summary

Daily Weather History Graph

Daily Weather History Graph

Search for Another Location

Airport or City:

Astronomy

Aug. 22, 2019 Rise Set
Actual Time 6:50 AM MDT 8:12 PM MDT
Civil Twilight 6:22 AM MDT 8:39 PM MDT
Nautical Twilight 5:49 AM MDT 9:12 PM MDT
Astronomical Twilight 5:15 AM MDT 9:46 PM MDT
Moon No Moon Rise 1:22 PM MDT (8/22)
Length of Visible Light 14h 16m
Length of Day
13h 22m
Waning Gibbous, 59% of the Moon is Illuminated
Aug 22
Waning Gibbous
Aug 23
Last Quarter
Aug 30
New
Sep 5
First Quarter
Sep 13
Full

Hourly Weather History & Observations

Time (MDT) Temp. Windchill Dew Point Humidity Pressure Visibility Wind Dir Wind Speed Gust Speed Precip Events Conditions
12:53 AM 46.9 °F - 21.0 °F 36% 29.84 in 10.0 mi WSW 6.9 mph - N/A   Clear
1:53 AM 48.0 °F - 19.0 °F 32% 29.83 in 8.0 mi WNW 9.2 mph - N/A   Clear
2:53 AM 45.0 °F 41.8 °F 19.0 °F 36% 29.82 in 7.0 mi West 5.8 mph - N/A   Clear
3:53 AM 48.0 °F - 21.0 °F 34% 29.81 in 2.5 mi Calm Calm - N/A   Haze
4:01 AM 48.9 °F - 21.0 °F 33% 30.18 in 3.0 mi WNW 4.6 mph - N/A   Haze
4:53 AM 45.0 °F 41.8 °F 21.9 °F 40% 29.81 in 4.0 mi SW 5.8 mph - N/A   Haze
5:53 AM 46.9 °F - 25.0 °F 42% 29.81 in 5.0 mi Variable 3.5 mph - N/A   Haze
6:53 AM 46.9 °F - 24.1 °F 41% 29.83 in 4.0 mi WNW 4.6 mph - N/A   Haze
7:53 AM 48.9 °F - 27.0 °F 43% 29.85 in 5.0 mi West 3.5 mph - N/A   Haze
8:53 AM 63.0 °F - 28.9 °F 28% 29.82 in 7.0 mi Calm Calm - N/A   Clear
9:53 AM 71.1 °F - 26.1 °F 19% 29.83 in 10.0 mi SSE 6.9 mph - N/A   Clear
10:53 AM 71.1 °F - 19.9 °F 14% 29.86 in 10.0 mi SE 10.4 mph - N/A   Clear
11:53 AM 75.0 °F - 24.1 °F 15% 29.86 in 10.0 mi ESE 9.2 mph - N/A   Clear
12:53 PM 80.1 °F - 21.9 °F 12% 29.84 in 10.0 mi West 17.3 mph 23.0 mph N/A   Clear
1:53 PM 79.0 °F - 19.0 °F 11% 29.83 in 10.0 mi SSW 16.1 mph 25.3 mph N/A   Clear
2:53 PM 79.0 °F - 19.0 °F 11% 29.84 in 10.0 mi WSW 17.3 mph 26.5 mph N/A   Clear
3:53 PM 79.0 °F - 17.1 °F 10% 29.79 in 10.0 mi WSW 12.7 mph 26.5 mph N/A   Clear
4:53 PM 79.0 °F - 16.0 °F 9% 29.80 in 10.0 mi WSW 12.7 mph 21.9 mph N/A   Clear
5:53 PM 80.1 °F - 12.9 °F 8% 29.78 in 10.0 mi WSW 17.3 mph 24.2 mph N/A   Clear
6:53 PM 78.1 °F - 12.0 °F 8% 29.78 in 10.0 mi SW 12.7 mph - N/A   Clear
7:53 PM 73.0 °F - 12.9 °F 10% 29.80 in 10.0 mi WSW 9.2 mph - N/A   Clear
8:53 PM 59.0 °F - 17.1 °F 20% 29.81 in 10.0 mi WSW 8.1 mph - N/A   Clear
9:53 PM 52.0 °F - 21.0 °F 30% 29.82 in 8.0 mi WSW 6.9 mph - N/A   Clear
10:53 PM 46.9 °F - 21.9 °F 37% 29.84 in 8.0 mi WSW 5.8 mph - N/A   Clear
11:53 PM 46.0 °F - 21.0 °F 37% 29.83 in 7.0 mi Calm Calm - N/A   Clear